Year,Month,Day,Hour,Minute,Value (Times are PST for temperature in C)
2018,07,25,00,00,11.10
2018,07,25,00,01,11.10
2018,07,25,00,02,11.10
2018,07,25,00,03,11.10
2018,07,25,00,04,11.00
2018,07,25,00,05,11.00
2018,07,25,00,06,11.00
2018,07,25,00,07,11.00
2018,07,25,00,08,11.00
2018,07,25,00,09,11.00
2018,07,25,00,10,11.00
2018,07,25,00,11,11.00
2018,07,25,00,12,11.00
2018,07,25,00,13,11.00
2018,07,25,00,14,11.00
2018,07,25,00,15,11.00
2018,07,25,00,16,11.00
2018,07,25,00,17,10.90
2018,07,25,00,18,10.90
2018,07,25,00,19,10.90
2018,07,25,00,20,10.90
2018,07,25,00,21,10.90
2018,07,25,00,22,10.90
2018,07,25,00,23,10.90
2018,07,25,00,24,10.90
2018,07,25,00,25,10.90
2018,07,25,00,26,10.90
2018,07,25,00,27,10.90
2018,07,25,00,28,10.90
2018,07,25,00,29,10.90
2018,07,25,00,30,10.90
2018,07,25,00,31,10.90
2018,07,25,00,32,10.80
2018,07,25,00,33,10.90
2018,07,25,00,34,10.90
2018,07,25,00,35,10.90
2018,07,25,00,36,10.90
2018,07,25,00,37,10.90
2018,07,25,00,38,10.80
2018,07,25,00,39,10.80
2018,07,25,00,40,10.80
2018,07,25,00,41,10.80
2018,07,25,00,42,10.80
2018,07,25,00,43,10.80
2018,07,25,00,44,10.80
2018,07,25,00,45,10.80
2018,07,25,00,46,10.80
2018,07,25,00,47,10.80
2018,07,25,00,48,10.80
2018,07,25,00,49,10.80
2018,07,25,00,50,10.80
2018,07,25,00,51,10.80
2018,07,25,00,52,10.80
2018,07,25,00,53,10.80
2018,07,25,00,54,10.80
2018,07,25,00,55,10.80
2018,07,25,00,56,10.80
2018,07,25,00,57,10.80
2018,07,25,00,58,10.80
2018,07,25,00,59,10.80
2018,07,25,01,00,10.80
2018,07,25,01,01,10.90
2018,07,25,01,02,10.80
2018,07,25,01,03,10.80
2018,07,25,01,04,10.80
2018,07,25,01,05,10.80
2018,07,25,01,06,10.80
2018,07,25,01,07,10.80
2018,07,25,01,08,10.80
2018,07,25,01,09,10.80
2018,07,25,01,10,10.80
2018,07,25,01,11,10.80
2018,07,25,01,12,10.70
2018,07,25,01,13,10.80
2018,07,25,01,14,10.80
2018,07,25,01,15,10.80
2018,07,25,01,16,10.80
2018,07,25,01,17,10.80
2018,07,25,01,18,10.80
2018,07,25,01,19,10.80
2018,07,25,01,20,10.80
2018,07,25,01,21,10.80
2018,07,25,01,22,10.80
2018,07,25,01,23,10.80
2018,07,25,01,24,10.80
2018,07,25,01,25,10.80
2018,07,25,01,26,10.80
2018,07,25,01,27,10.80
2018,07,25,01,28,10.80
2018,07,25,01,29,10.70
2018,07,25,01,30,10.70
2018,07,25,01,31,10.70
2018,07,25,01,32,10.70
2018,07,25,01,33,10.70
2018,07,25,01,34,10.80
2018,07,25,01,35,10.80
2018,07,25,01,36,10.80
2018,07,25,01,37,10.80
2018,07,25,01,38,10.80
2018,07,25,01,39,10.80
2018,07,25,01,40,10.80
2018,07,25,01,41,10.80
2018,07,25,01,42,10.80
2018,07,25,01,43,10.70
2018,07,25,01,44,10.80
2018,07,25,01,45,10.80
2018,07,25,01,46,10.80
2018,07,25,01,47,10.80
2018,07,25,01,48,10.80
2018,07,25,01,49,10.80
2018,07,25,01,50,10.80
2018,07,25,01,51,10.80
2018,07,25,01,52,10.80
2018,07,25,01,53,10.80
2018,07,25,01,54,10.80
2018,07,25,01,55,10.80
2018,07,25,01,56,10.80
2018,07,25,01,57,10.80
2018,07,25,01,58,10.80
2018,07,25,01,59,10.80
2018,07,25,02,00,10.80
2018,07,25,02,01,10.80
2018,07,25,02,02,10.80
2018,07,25,02,03,10.80
2018,07,25,02,04,10.80
2018,07,25,02,05,10.80
2018,07,25,02,06,10.80
2018,07,25,02,07,10.80
2018,07,25,02,08,10.80
2018,07,25,02,09,10.80
2018,07,25,02,10,10.80
2018,07,25,02,11,10.80
2018,07,25,02,12,10.80
2018,07,25,02,13,10.80
2018,07,25,02,14,10.80
2018,07,25,02,15,10.80
2018,07,25,02,16,10.80
2018,07,25,02,17,10.80
2018,07,25,02,18,10.80
2018,07,25,02,19,10.80
2018,07,25,02,20,10.80
2018,07,25,02,21,10.80
2018,07,25,02,22,10.80
2018,07,25,02,23,10.80
2018,07,25,02,24,10.80
2018,07,25,02,25,10.80
2018,07,25,02,26,10.80
2018,07,25,02,27,10.80
2018,07,25,02,28,10.80
2018,07,25,02,29,10.80
2018,07,25,02,30,10.80
2018,07,25,02,31,10.80
2018,07,25,02,32,10.70
2018,07,25,02,33,10.70
2018,07,25,02,34,10.70
2018,07,25,02,35,10.70
2018,07,25,02,36,10.70
2018,07,25,02,37,10.70
2018,07,25,02,38,10.70
2018,07,25,02,39,10.70
2018,07,25,02,40,10.70
2018,07,25,02,41,10.70
2018,07,25,02,42,10.70
2018,07,25,02,43,10.70
2018,07,25,02,44,10.70
2018,07,25,02,45,10.70
2018,07,25,02,46,10.70
2018,07,25,02,47,10.70
2018,07,25,02,48,10.70
2018,07,25,02,49,10.70
2018,07,25,02,50,10.70
2018,07,25,02,51,10.70
2018,07,25,02,52,10.70
2018,07,25,02,53,10.70
2018,07,25,02,54,10.70
2018,07,25,02,55,10.60
2018,07,25,02,56,10.60
2018,07,25,02,57,10.60
2018,07,25,02,58,10.60
2018,07,25,02,59,10.60
2018,07,25,03,00,10.60
2018,07,25,03,01,10.60
2018,07,25,03,02,10.60
2018,07,25,03,03,10.60
2018,07,25,03,04,10.60
2018,07,25,03,05,10.60
2018,07,25,03,06,10.60
2018,07,25,03,07,10.60
2018,07,25,03,08,10.60
2018,07,25,03,09,10.60
2018,07,25,03,10,10.60
2018,07,25,03,11,10.60
2018,07,25,03,12,10.60
2018,07,25,03,13,10.60
2018,07,25,03,14,10.60
2018,07,25,03,15,10.60
2018,07,25,03,16,10.60
2018,07,25,03,17,10.60
2018,07,25,03,18,10.60
2018,07,25,03,19,10.60
2018,07,25,03,20,10.60
2018,07,25,03,21,10.60
2018,07,25,03,22,10.60
2018,07,25,03,23,10.60
2018,07,25,03,24,10.60
2018,07,25,03,25,10.60
2018,07,25,03,26,10.50
2018,07,25,03,27,10.50
2018,07,25,03,28,10.50
2018,07,25,03,29,10.50
2018,07,25,03,30,10.50
2018,07,25,03,31,10.50
2018,07,25,03,32,10.50
2018,07,25,03,33,10.50
2018,07,25,03,34,10.50
2018,07,25,03,35,10.50
2018,07,25,03,36,10.40
2018,07,25,03,37,10.50
2018,07,25,03,38,10.40
2018,07,25,03,39,10.40
2018,07,25,03,40,10.40
2018,07,25,03,41,10.40
2018,07,25,03,42,10.40
2018,07,25,03,43,10.50
2018,07,25,03,44,10.50
2018,07,25,03,45,10.50
2018,07,25,03,46,10.50
2018,07,25,03,47,10.50
2018,07,25,03,48,10.50
2018,07,25,03,49,10.50
2018,07,25,03,50,10.50
2018,07,25,03,51,10.50
2018,07,25,03,52,10.50
2018,07,25,03,53,10.50
2018,07,25,03,54,10.40
2018,07,25,03,55,10.40
2018,07,25,03,56,10.40
2018,07,25,03,57,10.40
2018,07,25,03,58,10.40
2018,07,25,03,59,10.40
2018,07,25,04,00,10.40
2018,07,25,04,01,10.30
2018,07,25,04,02,10.30
2018,07,25,04,03,10.30
2018,07,25,04,04,10.30
2018,07,25,04,05,10.30
2018,07,25,04,06,10.20
2018,07,25,04,07,10.20
2018,07,25,04,08,10.20
2018,07,25,04,09,10.20
2018,07,25,04,10,10.20
2018,07,25,04,11,10.20
2018,07,25,04,12,10.20
2018,07,25,04,13,10.20
2018,07,25,04,14,10.20
2018,07,25,04,15,10.20
2018,07,25,04,16,10.10
2018,07,25,04,17,10.10
2018,07,25,04,18,10.10
2018,07,25,04,19,10.10
2018,07,25,04,20,10.10
2018,07,25,04,21,10.10
2018,07,25,04,22,10.10
2018,07,25,04,23,10.10
2018,07,25,04,24,10.00
2018,07,25,04,25,10.00
2018,07,25,04,26,10.00
2018,07,25,04,27,10.00
2018,07,25,04,28,10.00
2018,07,25,04,29,10.00
2018,07,25,04,30,10.00
2018,07,25,04,31,10.00
2018,07,25,04,32,10.00
2018,07,25,04,33,10.00
2018,07,25,04,34,10.00
2018,07,25,04,35,10.00
2018,07,25,04,36,10.00
2018,07,25,04,37,9.90
2018,07,25,04,38,9.90
2018,07,25,04,39,9.90
2018,07,25,04,40,9.90
2018,07,25,04,41,9.90
2018,07,25,04,42,9.90
2018,07,25,04,43,9.90
2018,07,25,04,44,9.90
2018,07,25,04,45,9.90
2018,07,25,04,46,9.90
2018,07,25,04,47,9.90
2018,07,25,04,48,9.90
2018,07,25,04,49,10.00
2018,07,25,04,50,10.00
2018,07,25,04,51,9.90
2018,07,25,04,52,9.90
2018,07,25,04,53,10.00
2018,07,25,04,54,9.90
2018,07,25,04,55,9.90
2018,07,25,04,56,9.90
2018,07,25,04,57,9.90
2018,07,25,04,58,9.90
2018,07,25,04,59,9.90
2018,07,25,05,00,9.90
2018,07,25,05,01,9.90
2018,07,25,05,02,10.00
2018,07,25,05,03,10.00
2018,07,25,05,04,10.00
2018,07,25,05,05,10.00
2018,07,25,05,06,10.00
2018,07,25,05,07,10.00
2018,07,25,05,08,10.00
2018,07,25,05,09,10.00
2018,07,25,05,10,10.00
2018,07,25,05,11,10.10
2018,07,25,05,12,10.10
2018,07,25,05,13,10.10
2018,07,25,05,14,10.10
2018,07,25,05,15,10.10
2018,07,25,05,16,10.10
2018,07,25,05,17,10.10
2018,07,25,05,18,10.10
2018,07,25,05,19,10.10
2018,07,25,05,20,10.10
2018,07,25,05,21,10.10
2018,07,25,05,22,10.10
2018,07,25,05,23,10.10
2018,07,25,05,24,10.10
2018,07,25,05,25,10.10
2018,07,25,05,26,10.10
2018,07,25,05,27,10.00
2018,07,25,05,28,10.00
2018,07,25,05,29,10.00
2018,07,25,05,30,10.00
2018,07,25,05,31,9.90
2018,07,25,05,32,9.90
2018,07,25,05,33,9.90
2018,07,25,05,34,9.90
2018,07,25,05,35,9.90
2018,07,25,05,36,9.90
2018,07,25,05,37,9.90
2018,07,25,05,38,9.90
2018,07,25,05,39,9.90
2018,07,25,05,40,9.90
2018,07,25,05,41,9.90
2018,07,25,05,42,9.90
2018,07,25,05,43,9.90
2018,07,25,05,44,9.90
2018,07,25,05,45,9.90
2018,07,25,05,46,9.90
2018,07,25,05,47,9.80
2018,07,25,05,48,9.80
2018,07,25,05,49,9.80
2018,07,25,05,50,9.80
2018,07,25,05,51,9.80
2018,07,25,05,52,9.80
2018,07,25,05,53,9.80
2018,07,25,05,54,9.80
2018,07,25,05,55,9.80
2018,07,25,05,56,9.80
2018,07,25,05,57,9.80
2018,07,25,05,58,9.80
2018,07,25,05,59,9.80
2018,07,25,06,00,9.80
2018,07,25,06,01,9.80
2018,07,25,06,02,9.80
2018,07,25,06,03,9.80
2018,07,25,06,04,9.80
2018,07,25,06,05,9.80
2018,07,25,06,06,9.80
2018,07,25,06,07,9.80
2018,07,25,06,08,9.80
2018,07,25,06,09,9.80
2018,07,25,06,10,9.80
2018,07,25,06,11,9.80
2018,07,25,06,12,9.80
2018,07,25,06,13,9.80
2018,07,25,06,14,9.80
2018,07,25,06,15,9.80
2018,07,25,06,16,9.80
2018,07,25,06,17,9.80
2018,07,25,06,18,9.90
2018,07,25,06,19,9.90
2018,07,25,06,20,9.90
2018,07,25,06,21,9.90
2018,07,25,06,22,9.90
2018,07,25,06,23,9.90
2018,07,25,06,24,9.90
2018,07,25,06,25,9.90
2018,07,25,06,26,9.90
2018,07,25,06,27,9.90
2018,07,25,06,28,9.90
2018,07,25,06,29,9.80
2018,07,25,06,30,9.80
2018,07,25,06,31,9.90
2018,07,25,06,32,9.90
2018,07,25,06,33,9.90
2018,07,25,06,34,9.90
2018,07,25,06,35,9.90
2018,07,25,06,36,9.90
2018,07,25,06,37,9.90
2018,07,25,06,38,9.90
2018,07,25,06,39,9.90
2018,07,25,06,40,9.90
2018,07,25,06,41,9.90
2018,07,25,06,42,9.90
2018,07,25,06,43,9.90
2018,07,25,06,44,10.00
2018,07,25,06,45,10.00
2018,07,25,06,46,10.10
2018,07,25,06,47,10.10
2018,07,25,06,48,10.10
2018,07,25,06,49,10.20
2018,07,25,06,50,10.20
2018,07,25,06,51,10.20
2018,07,25,06,52,10.30
2018,07,25,06,53,10.30
2018,07,25,06,54,10.30
2018,07,25,06,55,10.40
2018,07,25,06,56,10.40
2018,07,25,06,57,10.40
2018,07,25,06,58,10.50
2018,07,25,06,59,10.50
2018,07,25,07,00,10.60
2018,07,25,07,01,10.60
2018,07,25,07,02,10.60
2018,07,25,07,03,10.70
2018,07,25,07,04,10.70
2018,07,25,07,05,10.70
2018,07,25,07,06,10.70
2018,07,25,07,07,10.70
2018,07,25,07,08,10.70
2018,07,25,07,09,10.70
2018,07,25,07,10,10.80
2018,07,25,07,11,10.80
2018,07,25,07,12,10.80
2018,07,25,07,13,10.80
2018,07,25,07,14,10.80
2018,07,25,07,15,10.80
2018,07,25,07,16,10.80
2018,07,25,07,17,10.80
2018,07,25,07,18,10.80
2018,07,25,07,19,10.80
2018,07,25,07,20,10.80
2018,07,25,07,21,10.80
2018,07,25,07,22,10.90
2018,07,25,07,23,10.90
2018,07,25,07,24,10.90
2018,07,25,07,25,11.00
2018,07,25,07,26,11.00
2018,07,25,07,27,11.10
2018,07,25,07,28,11.10
2018,07,25,07,29,11.10
2018,07,25,07,30,11.10
2018,07,25,07,31,11.10
2018,07,25,07,32,11.10
2018,07,25,07,33,11.10
2018,07,25,07,34,11.10
2018,07,25,07,35,11.00
2018,07,25,07,36,11.00
2018,07,25,07,37,10.90
2018,07,25,07,38,10.90
2018,07,25,07,39,10.90
2018,07,25,07,40,11.00
2018,07,25,07,41,11.00
2018,07,25,07,42,11.10
2018,07,25,07,43,11.10
2018,07,25,07,44,11.10
2018,07,25,07,45,11.20
2018,07,25,07,46,11.20
2018,07,25,07,47,11.20
2018,07,25,07,48,11.20
2018,07,25,07,49,11.20
2018,07,25,07,50,11.20
2018,07,25,07,51,11.20
2018,07,25,07,52,11.20
2018,07,25,07,53,11.20
2018,07,25,07,54,11.30
2018,07,25,07,55,11.30
2018,07,25,07,56,11.30
2018,07,25,07,57,11.30
2018,07,25,07,58,11.40
2018,07,25,07,59,11.40
2018,07,25,08,00,11.40
2018,07,25,08,01,11.40
2018,07,25,08,02,11.40
2018,07,25,08,03,11.40
2018,07,25,08,04,11.40
2018,07,25,08,05,11.40
2018,07,25,08,06,11.40
2018,07,25,08,07,11.40
2018,07,25,08,08,11.40
2018,07,25,08,09,11.40
2018,07,25,08,10,11.40
2018,07,25,08,11,11.40
2018,07,25,08,12,11.40
2018,07,25,08,13,11.40
2018,07,25,08,14,11.40
2018,07,25,08,15,11.50
2018,07,25,08,16,11.60
2018,07,25,08,17,11.60
2018,07,25,08,18,11.70
2018,07,25,08,19,11.70
2018,07,25,08,20,11.70
2018,07,25,08,21,11.70
2018,07,25,08,22,11.70
2018,07,25,08,23,11.60
2018,07,25,08,24,11.60
2018,07,25,08,25,11.60
2018,07,25,08,26,11.60
2018,07,25,08,27,11.60
2018,07,25,08,28,11.60
2018,07,25,08,29,11.60
2018,07,25,08,30,11.60
2018,07,25,08,31,11.60
2018,07,25,08,32,11.60
2018,07,25,08,33,11.60
2018,07,25,08,34,11.70
2018,07,25,08,35,11.70
2018,07,25,08,36,11.70
2018,07,25,08,37,11.70
2018,07,25,08,38,11.70
2018,07,25,08,39,11.70
2018,07,25,08,40,11.70
2018,07,25,08,41,11.70
2018,07,25,08,42,11.80
2018,07,25,08,43,11.80
2018,07,25,08,44,11.80
2018,07,25,08,45,11.90
2018,07,25,08,46,11.90
2018,07,25,08,47,11.90
2018,07,25,08,48,12.00
2018,07,25,08,49,12.00
2018,07,25,08,50,12.10
2018,07,25,08,51,12.10
2018,07,25,08,52,12.10
2018,07,25,08,53,12.10
2018,07,25,08,54,12.10
2018,07,25,08,55,12.20
2018,07,25,08,56,12.20
2018,07,25,08,57,12.20
2018,07,25,08,58,12.20
2018,07,25,08,59,12.20
2018,07,25,09,00,12.20
2018,07,25,09,01,12.20
2018,07,25,09,02,12.20
2018,07,25,09,03,12.20
2018,07,25,09,04,12.20
2018,07,25,09,05,12.30
2018,07,25,09,06,12.30
2018,07,25,09,07,12.30
2018,07,25,09,08,12.40
2018,07,25,09,09,12.40
2018,07,25,09,10,12.50
2018,07,25,09,11,12.50
2018,07,25,09,12,12.60
2018,07,25,09,13,12.70
2018,07,25,09,14,12.70
2018,07,25,09,15,12.70
2018,07,25,09,16,12.80
2018,07,25,09,17,12.90
2018,07,25,09,18,13.00
2018,07,25,09,19,13.10
2018,07,25,09,20,13.20
2018,07,25,09,21,13.30
2018,07,25,09,22,13.50
2018,07,25,09,23,13.60
2018,07,25,09,24,13.70
2018,07,25,09,25,13.80
2018,07,25,09,26,13.90
2018,07,25,09,27,14.00
2018,07,25,09,28,14.10
2018,07,25,09,29,14.20
2018,07,25,09,30,14.30
2018,07,25,09,31,14.40
2018,07,25,09,32,14.50
2018,07,25,09,33,14.60
2018,07,25,09,34,14.70
2018,07,25,09,35,14.60
2018,07,25,09,36,14.60
2018,07,25,09,37,14.70
2018,07,25,09,38,14.70
2018,07,25,09,39,14.80
2018,07,25,09,40,14.90
2018,07,25,09,41,15.00
2018,07,25,09,42,15.10
2018,07,25,09,43,15.20
2018,07,25,09,44,15.30
2018,07,25,09,45,15.40
2018,07,25,09,46,15.50
2018,07,25,09,47,15.50
2018,07,25,09,48,15.60
2018,07,25,09,49,15.60
2018,07,25,09,50,15.50
2018,07,25,09,51,15.50
2018,07,25,09,52,15.50
2018,07,25,09,53,15.60
2018,07,25,09,54,15.60
2018,07,25,09,55,15.70
2018,07,25,09,56,15.70
2018,07,25,09,57,15.80
2018,07,25,09,58,15.90
2018,07,25,09,59,16.00
2018,07,25,10,00,16.10
2018,07,25,10,01,16.20
2018,07,25,10,02,16.20
2018,07,25,10,03,16.10
2018,07,25,10,04,16.10
2018,07,25,10,05,16.00
2018,07,25,10,06,16.00
2018,07,25,10,07,15.90
2018,07,25,10,08,15.90
2018,07,25,10,09,15.80
2018,07,25,10,10,15.80
2018,07,25,10,11,15.80
2018,07,25,10,12,15.80
2018,07,25,10,13,15.80
2018,07,25,10,14,15.90
2018,07,25,10,15,16.00
2018,07,25,10,16,16.10
2018,07,25,10,17,16.20
2018,07,25,10,18,16.30
2018,07,25,10,19,16.40
2018,07,25,10,20,16.50
2018,07,25,10,21,16.60
2018,07,25,10,22,16.60
2018,07,25,10,23,16.70
2018,07,25,10,24,16.70
2018,07,25,10,25,16.70
2018,07,25,10,26,16.80
2018,07,25,10,27,16.80
2018,07,25,10,28,16.90
2018,07,25,10,29,16.90
2018,07,25,10,30,16.90
2018,07,25,10,31,16.90
2018,07,25,10,32,16.90
2018,07,25,10,33,16.90
2018,07,25,10,34,16.90
2018,07,25,10,35,16.90
2018,07,25,10,36,16.80
2018,07,25,10,37,16.70
2018,07,25,10,38,16.70
2018,07,25,10,39,16.70
2018,07,25,10,40,16.70
2018,07,25,10,41,16.70
2018,07,25,10,42,16.80
2018,07,25,10,43,16.80
2018,07,25,10,44,16.80
2018,07,25,10,45,16.80
2018,07,25,10,46,16.70
2018,07,25,10,47,16.70
2018,07,25,10,48,16.60
2018,07,25,10,49,16.50
2018,07,25,10,50,16.40
2018,07,25,10,51,16.30
2018,07,25,10,52,16.20
2018,07,25,10,53,16.20
2018,07,25,10,54,16.20
2018,07,25,10,55,16.20
2018,07,25,10,56,16.30
2018,07,25,10,57,16.40
2018,07,25,10,58,16.50
2018,07,25,10,59,16.50
2018,07,25,11,00,16.50
2018,07,25,11,01,16.60
2018,07,25,11,02,16.70
2018,07,25,11,03,16.80
2018,07,25,11,04,16.80
2018,07,25,11,05,16.80
2018,07,25,11,06,16.80
2018,07,25,11,07,16.80
2018,07,25,11,08,16.80
2018,07,25,11,09,16.80
2018,07,25,11,10,16.70
2018,07,25,11,11,16.80
2018,07,25,11,12,16.80
2018,07,25,11,13,16.90
2018,07,25,11,14,17.00
2018,07,25,11,15,17.00
2018,07,25,11,16,17.10
2018,07,25,11,17,17.10
2018,07,25,11,18,17.10
2018,07,25,11,19,17.20
2018,07,25,11,20,17.20
2018,07,25,11,21,17.30
2018,07,25,11,22,17.40
2018,07,25,11,23,17.50
2018,07,25,11,24,17.60
2018,07,25,11,25,17.80
2018,07,25,11,26,17.90
2018,07,25,11,27,18.00
2018,07,25,11,28,18.10
2018,07,25,11,29,18.20
2018,07,25,11,30,18.40
2018,07,25,11,31,18.50
2018,07,25,11,32,18.60
2018,07,25,11,33,18.70
2018,07,25,11,34,18.70
2018,07,25,11,35,18.80
2018,07,25,11,36,18.80
2018,07,25,11,37,18.80
2018,07,25,11,38,18.90
2018,07,25,11,39,19.00
2018,07,25,11,40,19.10
2018,07,25,11,41,19.20
2018,07,25,11,42,19.40
2018,07,25,11,43,19.50
2018,07,25,11,44,19.60
2018,07,25,11,45,19.80
2018,07,25,11,46,19.80
2018,07,25,11,47,19.90
2018,07,25,11,48,20.00
2018,07,25,11,49,20.00
2018,07,25,11,50,20.00
2018,07,25,11,51,20.10
2018,07,25,11,52,20.10
2018,07,25,11,53,20.10
2018,07,25,11,54,20.10
2018,07,25,11,55,20.10
2018,07,25,11,56,20.10
2018,07,25,11,57,20.20
2018,07,25,11,58,20.20
2018,07,25,11,59,20.20
2018,07,25,12,00,20.20
2018,07,25,12,01,20.30
2018,07,25,12,02,20.30
2018,07,25,12,03,20.30
2018,07,25,12,04,20.40
2018,07,25,12,05,20.40
2018,07,25,12,06,20.50
2018,07,25,12,07,20.60
2018,07,25,12,08,20.80
2018,07,25,12,09,20.90
2018,07,25,12,10,21.00
2018,07,25,12,11,21.10
2018,07,25,12,12,21.20
2018,07,25,12,13,21.30
2018,07,25,12,14,21.40
2018,07,25,12,15,21.50
2018,07,25,12,16,21.60
2018,07,25,12,17,21.60
2018,07,25,12,18,21.60
2018,07,25,12,19,21.60
2018,07,25,12,20,21.60
2018,07,25,12,21,21.70
2018,07,25,12,22,21.80
2018,07,25,12,23,21.90
2018,07,25,12,24,22.00
2018,07,25,12,25,22.10
2018,07,25,12,26,22.10
2018,07,25,12,27,22.20
2018,07,25,12,28,22.20
2018,07,25,12,29,22.30
2018,07,25,12,30,22.30
2018,07,25,12,31,22.30
2018,07,25,12,32,22.40
2018,07,25,12,33,22.40
2018,07,25,12,34,22.30
2018,07,25,12,35,22.30
2018,07,25,12,36,22.30
2018,07,25,12,37,22.40
2018,07,25,12,38,22.50
2018,07,25,12,39,22.60
2018,07,25,12,40,22.70
2018,07,25,12,41,22.80
2018,07,25,12,42,23.00
2018,07,25,12,43,23.10
2018,07,25,12,44,23.20
2018,07,25,12,45,23.30
2018,07,25,12,46,23.50
2018,07,25,12,47,23.60
2018,07,25,12,48,23.80
2018,07,25,12,49,23.90
2018,07,25,12,50,24.00
2018,07,25,12,51,24.10
2018,07,25,12,52,24.20
2018,07,25,12,53,24.30
2018,07,25,12,54,24.40
2018,07,25,12,55,24.50
2018,07,25,12,56,24.50
2018,07,25,12,57,24.60
2018,07,25,12,58,24.70
2018,07,25,12,59,24.70
2018,07,25,13,00,24.70
2018,07,25,13,01,24.80
2018,07,25,13,02,24.80
2018,07,25,13,03,24.80
2018,07,25,13,04,24.80
2018,07,25,13,05,24.70
2018,07,25,13,06,24.70
2018,07,25,13,07,24.60
2018,07,25,13,08,24.60
2018,07,25,13,09,24.60
2018,07,25,13,10,24.50
2018,07,25,13,11,24.50
2018,07,25,13,12,24.40
2018,07,25,13,13,24.40
2018,07,25,13,14,24.40
2018,07,25,13,15,24.30
2018,07,25,13,16,24.30
2018,07,25,13,17,24.30
2018,07,25,13,18,24.30
2018,07,25,13,19,24.30
2018,07,25,13,20,24.40
2018,07,25,13,21,24.40
2018,07,25,13,22,24.50
2018,07,25,13,23,24.60
2018,07,25,13,24,24.60
2018,07,25,13,25,24.60
2018,07,25,13,26,24.60
2018,07,25,13,27,24.60
2018,07,25,13,28,24.70
2018,07,25,13,29,24.60
2018,07,25,13,30,24.60
2018,07,25,13,31,24.60
2018,07,25,13,32,24.50
2018,07,25,13,33,24.40
2018,07,25,13,34,24.30
2018,07,25,13,35,24.20
2018,07,25,13,36,24.00
2018,07,25,13,37,23.90
2018,07,25,13,38,23.70
2018,07,25,13,39,23.60
2018,07,25,13,40,23.50
2018,07,25,13,41,23.50
2018,07,25,13,42,23.50
2018,07,25,13,43,23.60
2018,07,25,13,44,23.60
2018,07,25,13,45,23.70
2018,07,25,13,46,23.70
2018,07,25,13,47,23.60
2018,07,25,13,48,23.50
2018,07,25,13,49,23.40
2018,07,25,13,50,23.40
2018,07,25,13,51,23.30
2018,07,25,13,52,23.30
2018,07,25,13,53,23.40
2018,07,25,13,54,23.40
2018,07,25,13,55,23.40
2018,07,25,13,56,23.40
2018,07,25,13,57,23.40
2018,07,25,13,58,23.40
2018,07,25,13,59,23.40
2018,07,25,14,00,23.30
2018,07,25,14,01,23.20
2018,07,25,14,02,23.20
2018,07,25,14,03,23.20
2018,07,25,14,04,23.20
2018,07,25,14,05,23.20
2018,07,25,14,06,23.30
2018,07,25,14,07,23.40
2018,07,25,14,08,23.50
2018,07,25,14,09,23.60
2018,07,25,14,10,23.70
2018,07,25,14,11,23.80
2018,07,25,14,12,23.90
2018,07,25,14,13,23.90
2018,07,25,14,14,23.90
2018,07,25,14,15,23.80
2018,07,25,14,16,23.70
2018,07,25,14,17,23.70
2018,07,25,14,18,23.60
2018,07,25,14,19,23.60
2018,07,25,14,20,23.50
2018,07,25,14,21,23.50
2018,07,25,14,22,23.50
2018,07,25,14,23,23.50
2018,07,25,14,24,23.50
2018,07,25,14,25,23.60
2018,07,25,14,26,23.60
2018,07,25,14,27,23.60
2018,07,25,14,28,23.50
2018,07,25,14,29,23.50
2018,07,25,14,30,23.50
2018,07,25,14,31,23.60
2018,07,25,14,32,23.60
2018,07,25,14,33,23.60
2018,07,25,14,34,23.50
2018,07,25,14,35,23.50
2018,07,25,14,36,23.50
2018,07,25,14,37,23.50
2018,07,25,14,38,23.60
2018,07,25,14,39,23.60
2018,07,25,14,40,23.60
2018,07,25,14,41,23.60
2018,07,25,14,42,23.70
2018,07,25,14,43,23.70
2018,07,25,14,44,23.70
2018,07,25,14,45,23.60
2018,07,25,14,46,23.60
2018,07,25,14,47,23.60
2018,07,25,14,48,23.50
2018,07,25,14,49,23.40
2018,07,25,14,50,23.40
2018,07,25,14,51,23.40
2018,07,25,14,52,23.40
2018,07,25,14,53,23.40
2018,07,25,14,54,23.30
2018,07,25,14,55,23.30
2018,07,25,14,56,23.10
2018,07,25,14,57,23.00
2018,07,25,14,58,22.80
2018,07,25,14,59,22.70
2018,07,25,15,00,22.60
2018,07,25,15,01,22.60
2018,07,25,15,02,22.50
2018,07,25,15,03,22.50
2018,07,25,15,04,22.60
2018,07,25,15,05,22.70
2018,07,25,15,06,22.60
2018,07,25,15,07,22.60
2018,07,25,15,08,22.60
2018,07,25,15,09,22.70
2018,07,25,15,10,22.70
2018,07,25,15,11,22.80
2018,07,25,15,12,22.80
2018,07,25,15,13,22.70
2018,07,25,15,14,22.70
2018,07,25,15,15,22.70
2018,07,25,15,16,22.80
2018,07,25,15,17,22.80
2018,07,25,15,18,22.80
2018,07,25,15,19,22.80
2018,07,25,15,20,22.90
2018,07,25,15,21,22.90
2018,07,25,15,22,22.90
2018,07,25,15,23,22.80
2018,07,25,15,24,22.80
2018,07,25,15,25,22.70
2018,07,25,15,26,22.70
2018,07,25,15,27,22.70
2018,07,25,15,28,22.70
2018,07,25,15,29,22.70
2018,07,25,15,30,22.80
2018,07,25,15,31,22.90
2018,07,25,15,32,23.00
2018,07,25,15,33,23.10
2018,07,25,15,34,23.20
2018,07,25,15,35,23.30
2018,07,25,15,36,23.40
2018,07,25,15,37,23.50
2018,07,25,15,38,23.60
2018,07,25,15,39,23.50
2018,07,25,15,40,23.40
2018,07,25,15,41,23.30
2018,07,25,15,42,23.20
2018,07,25,15,43,23.10
2018,07,25,15,44,23.10
2018,07,25,15,45,23.10
2018,07,25,15,46,23.10
2018,07,25,15,47,23.00
2018,07,25,15,48,23.00
2018,07,25,15,49,23.00
2018,07,25,15,50,23.00
2018,07,25,15,51,23.00
2018,07,25,15,52,23.00
2018,07,25,15,53,23.00
2018,07,25,15,54,23.00
2018,07,25,15,55,23.00
2018,07,25,15,56,23.00
2018,07,25,15,57,22.90
2018,07,25,15,58,22.90
2018,07,25,15,59,22.70
2018,07,25,16,00,22.60
2018,07,25,16,01,22.60
2018,07,25,16,02,22.50
2018,07,25,16,03,22.30
2018,07,25,16,04,22.20
2018,07,25,16,05,22.10
2018,07,25,16,06,21.80
2018,07,25,16,07,21.60
2018,07,25,16,08,21.40
2018,07,25,16,09,21.20
2018,07,25,16,10,20.90
2018,07,25,16,11,20.60
2018,07,25,16,12,20.30
2018,07,25,16,13,20.10
2018,07,25,16,14,19.70
2018,07,25,16,15,19.30
2018,07,25,16,16,18.90
2018,07,25,16,17,18.70
2018,07,25,16,18,18.50
2018,07,25,16,19,18.40
2018,07,25,16,20,18.20
2018,07,25,16,21,18.10
2018,07,25,16,22,18.00
2018,07,25,16,23,17.90
2018,07,25,16,24,17.90
2018,07,25,16,25,17.80
2018,07,25,16,26,17.80
2018,07,25,16,27,17.80
2018,07,25,16,28,17.80
2018,07,25,16,29,17.80
2018,07,25,16,30,17.90
2018,07,25,16,31,17.90
2018,07,25,16,32,17.90
2018,07,25,16,33,17.90
2018,07,25,16,34,17.90
2018,07,25,16,35,18.00
2018,07,25,16,36,18.10
2018,07,25,16,37,18.30
2018,07,25,16,38,18.40
2018,07,25,16,39,18.40
2018,07,25,16,40,18.50
2018,07,25,16,41,18.60
2018,07,25,16,42,18.70
2018,07,25,16,43,18.80
2018,07,25,16,44,18.90
2018,07,25,16,45,18.80
2018,07,25,16,46,18.80
2018,07,25,16,47,18.70
2018,07,25,16,48,18.70
2018,07,25,16,49,18.70
2018,07,25,16,50,18.60
2018,07,25,16,51,18.50
2018,07,25,16,52,18.50
2018,07,25,16,53,18.40
2018,07,25,16,54,18.40
2018,07,25,16,55,18.40
2018,07,25,16,56,18.40
2018,07,25,16,57,18.40
2018,07,25,16,58,18.30
2018,07,25,16,59,18.30
2018,07,25,17,00,18.20
2018,07,25,17,01,18.20
2018,07,25,17,02,18.10
2018,07,25,17,03,18.00
2018,07,25,17,04,17.90
2018,07,25,17,05,17.90
2018,07,25,17,06,17.80
2018,07,25,17,07,17.70
2018,07,25,17,08,17.60
2018,07,25,17,09,17.50
2018,07,25,17,10,17.50
2018,07,25,17,11,17.40
2018,07,25,17,12,17.40
2018,07,25,17,13,17.40
2018,07,25,17,14,17.40
2018,07,25,17,15,17.30
2018,07,25,17,16,17.30
2018,07,25,17,17,17.20
2018,07,25,17,18,17.20
2018,07,25,17,19,17.20
2018,07,25,17,20,17.10
2018,07,25,17,21,17.10
2018,07,25,17,22,17.10
2018,07,25,17,23,17.10